TimeCST,TemperatureF,Dew PointF,Humidity,Sea Level PressureIn,VisibilityMPH,Wind Direction,Wind SpeedMPH,Gust SpeedMPH,PrecipitationIn,Events,Conditions,WindDirDegrees,DateUTC
12:52 AM,23.0,16.0,74,29.93,10.0,WSW,3.5,-,N/A,,Overcast,250,2012-12-11 06:52:00
1:52 AM,26.1,19.0,75,29.94,10.0,WNW,6.9,-,N/A,,Scattered Clouds,290,2012-12-11 07:52:00
2:52 AM,24.1,18.0,77,29.95,10.0,West,5.8,-,N/A,,Mostly Cloudy,280,2012-12-11 08:52:00
3:52 AM,24.1,19.0,81,29.95,10.0,West,10.4,-,N/A,,Scattered Clouds,270,2012-12-11 09:52:00
4:52 AM,26.1,19.9,78,29.95,10.0,West,6.9,-,N/A,,Overcast,280,2012-12-11 10:52:00
5:52 AM,24.1,18.0,77,29.96,10.0,West,11.5,-,N/A,,Clear,260,2012-12-11 11:52:00
6:52 AM,23.0,17.1,78,29.97,10.0,West,8.1,-,N/A,,Clear,260,2012-12-11 12:52:00
7:52 AM,21.9,17.1,82,29.99,10.0,West,6.9,-,N/A,,Mostly Cloudy,270,2012-12-11 13:52:00
8:52 AM,24.1,18.0,77,30.00,10.0,SW,3.5,-,N/A,,Clear,230,2012-12-11 14:52:00
9:52 AM,28.9,21.0,72,30.00,10.0,West,8.1,-,N/A,,Mostly Cloudy,260,2012-12-11 15:52:00
10:52 AM,35.1,24.1,64,29.99,10.0,West,13.8,-,N/A,,Scattered Clouds,270,2012-12-11 16:52:00
11:52 AM,37.0,24.1,59,29.99,10.0,WNW,12.7,-,N/A,,Clear,290,2012-12-11 17:52:00
12:52 PM,39.2,23.0,52,29.93,10.0,West,8.1,-,N/A,,Partly Cloudy,260,2012-12-11 18:52:00
1:52 PM,39.9,21.9,49,29.96,10.0,WNW,9.2,-,N/A,,Clear,300,2012-12-11 19:52:00
2:52 PM,39.9,23.0,51,29.95,10.0,West,9.2,-,N/A,,Clear,280,2012-12-11 20:52:00
3:52 PM,39.9,23.0,51,29.95,10.0,WSW,5.8,-,N/A,,Clear,250,2012-12-11 21:52:00
4:52 PM,35.1,21.9,59,29.96,10.0,SSW,5.8,-,N/A,,Clear,200,2012-12-11 22:52:00
5:52 PM,33.1,19.9,59,29.96,10.0,South,5.8,-,N/A,,Clear,180,2012-12-11 23:52:00
6:52 PM,28.9,19.0,67,29.97,10.0,South,4.6,-,N/A,,Clear,180,2012-12-12 00:52:00
7:52 PM,26.1,18.0,71,29.98,10.0,SE,4.6,-,N/A,,Clear,130,2012-12-12 01:52:00
8:52 PM,21.9,16.0,78,29.98,10.0,ESE,5.8,-,N/A,,Clear,110,2012-12-12 02:52:00
9:52 PM,21.0,15.1,78,29.98,10.0,East,8.1,-,N/A,,Clear,100,2012-12-12 03:52:00
10:52 PM,21.0,15.1,78,29.97,10.0,ESE,8.1,-,N/A,,Clear,120,2012-12-12 04:52:00
11:52 PM,23.0,14.0,68,29.97,10.0,South,9.2,-,N/A,,Clear,190,2012-12-12 05:52:00